Regional Weather Roundup
Issued by NWS Kansas City/Pleasant Hill, MO

Home | Current Version | Previous Version | Text Only | Print | Product List | Glossary On
Versions: 1 2 3 4 5 6 7 8 9 10 11 12 13 14 15 16 17 18 19 20 21 22 23 24 25 26 27 28 29 30 31 32 33 34 35 36 37 38 39 40 41 42 43 44 45 46 47 48 49 50
000
ASUS43 KEAX 021811
RWREAX

WEATHER ROUNDUP FOR EASTERN KANSAS AND NORTHWEST MISSOURI
NATIONAL WEATHER SERVICE KANSAS CITY/PLEASANT HILL MO
100 PM CDT TUE SEP 02 2014

KSZ040-057-103>105-MOZ028-029-037-043-021900-
...KANSAS CITY METROPOLITAN AREA...

CITY           SKY/WX    TMP DP  RH WIND       PRES   REMARKS
K.C. INTL      PTSUNNY   79  69  71 SE6       30.02R
6HR MIN TEMP:  63; 6HR MAX TEMP:  79;

K.C. DOWNTOWN  PTSUNNY   81  68  64 SW5       30.01S
6HR MIN TEMP:  70; 6HR MAX TEMP:  80;

LEES SUMMIT    PTSUNNY   77  67  71 VRB6      30.03R
6HR MIN TEMP:  69; 6HR MAX TEMP:  77;

OLATHE - IXD   CLOUDY    75  69  81 CALM      30.04R
6HR MIN TEMP:  68; 6HR MAX TEMP:  75;

OLATHE - OJC   PTSUNNY   74  68  81 S5        30.03R
6HR MIN TEMP:  68; 6HR MAX TEMP:  74;

LAWRENCE       PTSUNNY  N/A N/A N/A S7        30.03R

$$

MOZ001>008-011>017-020>025-030>033-038>040-044>046-053-054-021900-
...NORTHERN AND CENTRAL MISSOURI...

CITY           SKY/WX    TMP DP  RH WIND       PRES   REMARKS
ST. JOSEPH     SUNNY     80  63  55 W5        30.00F
6HR MIN TEMP:  60; 6HR MAX TEMP:  80;

MOSBY          MOCLDY    77  66  69 E3        30.01F
WHITEMAN AFB   PTSUNNY   74  71  90 S13       30.02R
6HR MIN TEMP:  69; 6HR MAX TEMP:  76; 6HR PCP: TRACE;

CLINTON        CLOUDY    73  72  94 SW9       30.04S
SEDALIA        CLOUDY    75  70  84 SW10      30.04R
6HR MIN TEMP:  71; 6HR MAX TEMP:  77;

WARSAW         NOT AVBL
MARSHALL       PTSUNNY   81  70  69 W6        30.02S HAZE
CHILLICOTHE      N/A     79  65  62 CALM      30.00S
6HR MIN TEMP:  63; 6HR MAX TEMP:  80;

MOBERLY        PTSUNNY   79  66  65 SW5       30.01
KIRKSVILLE     MOSUNNY   80  64  58 W7        30.00R
6HR MIN TEMP:  66; 6HR MAX TEMP:  80;


$$

MOZ041-047>049-056>058-063>065-088>090-097-021900-
...EASTERN AND SOUTHERN MISSOURI...

CITY           SKY/WX    TMP DP  RH WIND       PRES   REMARKS
ST. LOUIS INTL CLOUDY    80  70  71 W8        29.99R
6HR MIN TEMP:  71; 6HR MAX TEMP:  80; 6HR PCP: TRACE;

SPIRIT OF STL  CLOUDY    77  72  83 W6        29.99R
COLUMBIA       CLOUDY    79  70  74 SW8       30.03R
JEFFERSON CITY CLOUDY    77  70  79 SW8       30.02R
MEXICO         CLOUDY    81  73  78 W6        30.01
ROLLA          CLOUDY    71  66  84 W12G22    30.04R
LEBANON        CLOUDY    72  64  78 W12       30.07R
OSAGE BEACH    CLOUDY    75  64  69 W8        30.04F
SPRINGFIELD    CLOUDY    70  65  84 W7        30.05R
BRANSON        CLOUDY    66  64  94 SW5       30.07F
NEVADA         CLOUDY    73  68  83 SW8       30.05F
JOPLIN         CLOUDY    70  67  90 SW9       30.06F
WEST PLAINS    CLOUDY    70  66  87 W8        30.08S

$$

IAZ060-094-KSZ022-034>040-054-083-096-NEZ052-066-093-021900-
...KANSAS...SOUTHEAST NEBRASKA AND IOWA...

CITY           SKY/WX    TMP DP  RH WIND       PRES   REMARKS
TOPEKA         MOSUNNY   81  69  67 CALM      30.02R
6HR MIN TEMP:  67; 6HR MAX TEMP:  81;

MANHATTAN      SUNNY     81  64  56 NE3       30.01S
EMPORIA        CLOUDY    73  71  93 S8        30.04R
CHANUTE        CLOUDY    77  67  71 S14       30.04F
WICHITA        PTSUNNY   84  65  52 SE14      30.01S
OMAHA          MOSUNNY   75  56  51 S3        29.99F
LINCOLN        SUNNY     77  57  50 VRB5      30.02S
FALLS CITY     SUNNY     80  61  52 VRB5      30.01R
LAMONI         SUNNY     77  62  59 NW9       30.00R
DES MOINES     MOSUNNY   77  57  50 VRB3      29.96S

$$



USA.gov is the U.S. government's official web portal to all federal, state and local government web resources and services.